Date String (YYYY-MM-DD hh:mm:ss) UTC,Instrument flags,Ambient pressure (hPa),Sample flow (lpm),Bypass flow (lpm),Sample temperature (°C),Ambient temperature (°C),ASC tube jacket temperature (°C),LED temperature (°C),Box temperature (°C),Sample RH (%),Span deviation,Mass concentration (μg/m³),Mass concentration (μg/m³),Mass concentration (μg/m³)
DateTimeUTC,F1_M11,P_M11,Q1_M11,Q2_M11,T1_M11,T2_M11,T3_M11,T4_M11,T5_M11,U1_M11,ZSPAN_M11,X0_M11,X2_M11,X1_M11
2022-05-06 18:00:00,,0820.9,5.00,0.00,29.6,25.8,00.0,38.6,30.9,09.2,0000.0,0010.12,0003.81,0001.95
2022-05-06 18:01:00,,0820.8,5.00,0.00,29.5,26.2,00.0,38.5,31.0,09.3,0000.0,0010.09,0003.79,0001.95
2022-05-06 18:02:00,,0820.8,5.01,0.00,29.5,26.7,00.0,38.5,31.1,10.6,0000.0,0009.93,0003.73,0001.93
2022-05-06 18:03:00,,0820.9,5.01,0.00,29.5,27.1,00.0,38.5,31.1,10.0,0000.0,0009.86,0003.68,0001.91
2022-05-06 18:04:00,,0820.8,4.99,0.00,29.5,27.4,00.0,38.4,31.2,09.7,0000.0,0009.51,0003.65,0001.92
2022-05-06 18:05:00,,0820.9,5.01,0.00,29.5,27.7,00.0,38.4,31.3,10.5,0000.0,0009.62,0003.66,0001.92
2022-05-06 18:06:00,,0820.8,5.00,0.00,29.6,28.0,00.0,38.4,31.3,09.7,0000.0,0009.61,0003.71,0001.93
2022-05-06 18:07:00,,0820.9,5.01,0.00,29.6,28.2,00.0,38.4,31.4,09.3,0000.0,0009.43,0003.68,0001.93
2022-05-06 18:08:00,,0820.8,4.99,0.00,29.6,28.3,00.0,38.5,31.4,09.7,0000.0,0009.06,0003.64,0001.94
2022-05-06 18:09:00,,0820.9,5.00,0.00,29.7,28.4,00.0,38.5,31.5,10.5,0000.0,0009.23,0003.64,0001.94
2022-05-06 18:10:00,,0820.9,5.01,0.00,29.7,28.6,00.0,38.5,31.5,09.7,0000.0,0010.37,0003.62,0001.94
2022-05-06 18:11:00,,0820.8,4.99,0.00,29.7,28.7,00.0,38.5,31.6,09.3,0000.0,0010.65,0003.63,0001.95
2022-05-06 18:12:00,,0820.8,5.00,0.00,29.8,28.7,00.0,38.5,31.6,09.4,0000.0,0011.51,0003.64,0001.95
2022-05-06 18:13:00,,0820.9,5.01,0.00,29.8,28.4,00.0,38.5,31.5,09.3,0000.0,0011.54,0003.68,0001.95
2022-05-06 18:14:00,,0820.8,4.98,0.00,29.7,26.4,00.0,38.6,31.1,09.6,0000.0,0011.51,0003.66,0001.95
2022-05-06 18:15:00,,0820.7,5.02,0.00,29.6,25.5,00.0,38.5,30.9,10.2,0000.0,0011.88,0003.70,0001.97
2022-05-06 18:16:00,,0820.6,5.00,0.00,29.5,25.9,00.0,38.5,31.0,10.1,0000.0,0012.21,0003.70,0001.96
2022-05-06 18:17:00,,0820.5,5.00,0.00,29.4,26.3,00.0,38.4,31.0,10.0,0000.0,0012.26,0003.65,0001.94
2022-05-06 18:18:00,,0820.5,4.99,0.00,29.4,26.7,00.0,38.4,31.0,09.9,0000.0,0013.46,0003.65,0001.94
2022-05-06 18:19:00,,0820.4,5.01,0.00,29.4,27.1,00.0,38.4,31.1,10.0,0000.0,0013.43,0003.63,0001.95
2022-05-06 18:20:00,,0820.3,4.99,0.00,29.4,27.4,00.0,38.3,31.2,09.6,0000.0,0012.97,0003.61,0001.94
2022-05-06 18:21:00,,0820.3,4.99,0.00,29.4,27.7,00.0,38.3,31.2,09.4,0000.0,0011.93,0003.67,0001.96
2022-05-06 18:22:00,,0820.3,4.99,0.00,29.4,27.9,00.0,38.3,31.2,10.1,0000.0,0011.89,0003.70,0001.97
2022-05-06 18:23:00,,0820.5,5.01,0.00,29.5,28.1,00.0,38.3,31.3,09.7,0000.0,0011.64,0003.68,0001.98
2022-05-06 18:24:00,,0820.6,5.00,0.00,29.5,28.2,00.0,38.4,31.3,09.1,0000.0,0011.70,0003.69,0002.00
2022-05-06 18:25:00,,0820.5,5.00,0.00,29.5,28.4,00.0,38.4,31.3,09.2,0000.0,0011.37,0003.74,0002.03
2022-05-06 18:26:00,,0820.4,5.00,0.00,29.5,28.4,00.0,38.4,31.3,10.0,0000.0,0011.03,0003.73,0002.01
2022-05-06 18:27:00,,0820.4,5.01,0.00,29.6,28.5,00.0,38.4,31.4,10.5,0000.0,0010.58,0003.73,0002.03
2022-05-06 18:28:00,,0820.6,5.00,0.00,29.6,28.6,00.0,38.4,31.4,09.8,0000.0,0010.30,0003.71,0002.04
2022-05-06 18:29:00,,0820.7,4.99,0.00,29.6,28.7,00.0,38.4,31.5,09.4,0000.0,0009.12,0003.72,0002.05
2022-05-06 18:30:00,,0820.8,5.00,0.00,29.7,28.4,00.0,38.5,31.4,09.3,0000.0,0009.58,0003.75,0002.05
2022-05-06 18:31:00,,0820.7,5.00,0.00,29.6,26.4,00.0,38.5,31.0,09.3,0000.0,0010.02,0003.79,0002.05
2022-05-06 18:32:00,,0820.7,5.00,0.00,29.4,25.4,00.0,38.4,30.8,09.6,0000.0,0010.72,0003.79,0002.03
2022-05-06 18:33:00,,0820.4,5.00,0.00,29.4,25.7,00.0,38.4,30.8,09.8,0000.0,0010.82,0003.80,0002.03
2022-05-06 18:34:00,,0820.5,5.01,0.00,29.3,26.2,00.0,38.3,30.9,10.0,0000.0,0010.66,0003.81,0002.02
2022-05-06 18:35:00,,0820.5,4.99,0.00,29.3,26.6,00.0,38.3,30.9,10.2,0000.0,0010.58,0003.79,0002.00
2022-05-06 18:36:00,,0820.6,5.00,0.00,29.3,27.0,00.0,38.3,31.0,09.7,0000.0,0010.52,0003.78,0001.99
2022-05-06 18:37:00,,0820.6,5.00,0.00,29.3,27.3,00.0,38.3,31.0,09.6,0000.0,0010.48,0003.77,0002.00
2022-05-06 18:38:00,,0820.7,5.00,0.00,29.3,27.6,00.0,38.3,31.1,09.5,0000.0,0010.73,0003.80,0001.99
2022-05-06 18:39:00,,0820.7,4.99,0.00,29.4,27.8,00.0,38.3,31.1,09.3,0000.0,0011.20,0003.83,0001.98
2022-05-06 18:40:00,,0820.7,5.00,0.00,29.4,28.0,00.0,38.3,31.2,09.3,0000.0,0011.72,0003.86,0001.97
2022-05-06 18:41:00,,0820.7,5.00,0.00,29.4,28.2,00.0,38.3,31.3,09.3,0000.0,0011.59,0003.86,0001.96
2022-05-06 18:42:00,,0820.6,4.99,0.00,29.5,28.3,00.0,38.3,31.3,09.7,0000.0,0011.55,0003.86,0001.98
2022-05-06 18:43:00,,0820.7,4.99,0.00,29.5,28.4,00.0,38.3,31.3,10.0,0000.0,0011.18,0003.83,0001.98
2022-05-06 18:44:00,,0820.7,5.00,0.00,29.6,28.5,00.0,38.3,31.4,10.0,0000.0,0011.00,0003.77,0001.98
2022-05-06 18:45:00,,0820.5,5.01,0.00,29.6,28.6,00.0,38.4,31.4,10.6,0000.0,0010.99,0003.75,0001.98
2022-05-06 18:46:00,,0820.5,5.00,0.00,29.6,28.6,00.0,38.4,31.5,10.3,0000.0,0010.97,0003.72,0001.98
2022-05-06 18:47:00,,0820.4,4.99,0.00,29.7,28.4,00.0,38.4,31.4,09.9,0000.0,0010.80,0003.66,0001.95
2022-05-06 18:48:00,,0820.4,5.01,0.00,29.6,26.5,00.0,38.4,31.0,10.3,0000.0,0010.71,0003.63,0001.94
2022-05-06 18:49:00,,0820.5,4.99,0.00,29.4,25.3,00.0,38.4,30.7,10.4,0000.0,0010.53,0003.60,0001.94
2022-05-06 18:50:00,,0820.6,5.00,0.00,29.4,25.7,00.0,38.4,30.8,09.9,0000.0,0010.60,0003.65,0001.96
2022-05-06 18:51:00,,0820.6,5.00,0.00,29.3,26.2,00.0,38.3,30.8,09.7,0000.0,0010.02,0003.62,0001.97
2022-05-06 18:52:00,,0820.5,5.01,0.00,29.3,26.6,00.0,38.3,30.9,10.4,0000.0,0010.10,0003.62,0001.96
2022-05-06 18:53:00,,0820.5,4.99,0.00,29.3,27.0,00.0,38.2,30.9,10.0,0000.0,0010.56,0003.63,0001.94
2022-05-06 18:54:00,,0820.4,4.99,0.00,29.3,27.3,00.0,38.2,31.0,10.0,0000.0,0010.38,0003.67,0001.93
2022-05-06 18:55:00,,0820.4,5.02,0.00,29.3,27.6,00.0,38.2,31.1,09.7,0000.0,0010.51,0003.71,0001.94
2022-05-06 18:56:00,,0820.4,5.00,0.00,29.4,27.8,00.0,38.2,31.1,09.8,0000.0,0009.87,0003.72,0001.93
2022-05-06 18:57:00,,0820.4,5.00,0.00,29.4,28.0,00.0,38.2,31.1,10.2,0000.0,0009.62,0003.70,0001.94
2022-05-06 18:58:00,,0820.4,5.01,0.00,29.4,28.1,00.0,38.2,31.2,10.3,0000.0,0009.80,0003.75,0001.95
2022-05-06 18:59:00,,0820.3,4.99,0.00,29.4,28.3,00.0,38.3,31.3,10.1,0000.0,0010.00,0003.80,0001.96
